Home > Weather > Passaic > Past weeks

Flag for USA Past Weather in Passaic, New Jersey, USA — Yesterday and Last 2 Weeks

Now
83 °F

Clear.


Feels Like: 85 °F
Forecast: 73 / 94 °F
Wind: 5 mph from Southeast

Location: Teterboro Airport

Current Time: Jul 27, 2016 at 11:00:29 PM

Latest Report: Jul 27, 2016 at 9:51 PM


Visibility: 10 mi

Pressure: 29.90 "Hg

Humidity: 57%

Dew Point: 66 °F

Location of PassaicLocation

Past Weather in Passaic — Graph

°F

Passaic Temperature Yesterday

Maximum temperature yesterday: 91 °F (at 2:51 PM)
Minimum temperature yesterday: 71 °F (at 5:51 AM)
Average temperature yesterday: 82 °F

High & Low Weather Summary for the Past Weeks

 TemperatureHumidityPressure
High97 °F (Jul 22, 3:51 PM)94% (Jul 25, 6:58 PM)30.23 "Hg (Jul 25, 6:58 PM)
Low67 °F (Jul 20, 5:51 AM)22% (Jul 23, 4:51 PM)29.76 "Hg (Jul 22, 6:51 PM)
Average82 °F56%29.96 "Hg
* Reported Jul 12 9:51 PM — Jul 27 9:51 PM, Passaic, Weather by CustomWeather, © 2016

Note: Actual official high and low records may vary slightly from our data, if they occured in-between our weather recording intervals... More about our weather records

Advertising

Passaic Weather History for the Previous 24 Hours

Scroll right to see more
 ConditionsComfort  
Time TempWeatherWind HumidityBarometerVisibility
9:51 PM
Wed, Jul 27
83 °FClear.5 mph57%29.90 "Hg10 mi
8:51 PM84 °FPartly sunny.3 mph55%29.88 "Hg10 mi
7:51 PM85 °FSunny.7 mph50%29.87 "Hg10 mi
6:51 PM88 °FSunny.7 mph42%29.86 "Hg10 mi
5:51 PM91 °FSunny.7 mph28%29.86 "Hg10 mi
4:51 PM92 °FSunny.8 mph31%29.87 "Hg10 mi
3:51 PM92 °FPartly sunny.12 mph31%29.88 "Hg10 mi
2:51 PM92 °FPartly sunny.9 mph35%29.90 "Hg10 mi
1:51 PM88 °FScattered clouds.10 mph40%29.95 "Hg10 mi
12:51 PM88 °FScattered clouds.10 mph39%29.93 "Hg10 mi
11:51 AM88 °FSunny.7 mph38%29.93 "Hg10 mi
10:51 AM86 °FSunny.No wind43%29.94 "Hg10 mi
9:51 AM83 °FSunny.6 mph46%29.95 "Hg10 mi
8:51 AM80 °FSunny.3 mph51%29.95 "Hg10 mi
7:51 AM78 °FSunny.No wind58%29.95 "Hg10 mi
6:51 AM73 °FSunny.No wind71%29.95 "Hg10 mi
5:51 AM72 °FClear.No wind71%29.94 "Hg10 mi
4:51 AM73 °FClear.No wind69%29.93 "Hg10 mi
3:51 AM73 °FClear.3 mph66%29.93 "Hg10 mi
2:51 AM75 °FClear.No wind62%29.92 "Hg10 mi
1:51 AM76 °FClear.3 mph60%29.92 "Hg10 mi
12:51 AM78 °FClear.6 mph54%29.91 "Hg10 mi
11:51 PM
Tue, Jul 26
80 °FClear.No wind49%29.92 "Hg10 mi
Weather by CustomWeather, © 2016

See weather overviewHow to use our weather pages